FENGYUN 1C DEB, 38143

Orbit data source: Space-Track

FENGYUN 1C DEB, 38143 is space debris in SSO originally from a launch on Mon, 10 May 1999 UTC launched from the Taiyaun Space Center, China (TSC). Fengyun 1C debris stems from the Chinese weather satellite Fengyun-1C, which was intentionally destroyed by a Chinese anti-satellite missile in 2007. This event dramatically increased the amount of space debris, with thousands of trackable fragments posing hazards to satellites and human spaceflight. The Fengyun 1C debris cloud has become a focal point in discussions about space sustainability and the need for international regulations to prevent the creation of new debris.

Loading next visibility...
Identifier
38143, 1999-025EQQ
Orbit
SSO
Country
Flag of CNCN / PRC
Related business
Manufacturer
Unknown
Mission
Spacecraft
Bus & Motor
Unknown
Mass
Unknown
Launch date (UTC)
1999-05-10 (27 years ago)
Launch vehicle
Unknown
Launch site
Taiyaun Space Center, China (TSC)
Object type
Payload
Rocket body
Debris
Shape & HBR
Unknown shape, 0.1 m
Radar Cross Section
Small (<0.1 m²)

Expand to show TLE details & history
Last TLE update: 3 weeks ago

TLE from 3 weeks ago
0 FENGYUN 1C DEB
1 38143U 99025EQQ 25294.89777245  .00001255  00000-0  79992-3 0  9997
2 38143  99.0354 351.0695 0056113   6.7086 353.4820 14.04743645595555
Epoch: 2025-10-21T21:32Z
TLE epoch observation values (Epoch: 2025-10-21T21:32:47.539Z)
Latitude
-0.00003°
Longitude
-2.70771°
Altitude
839.843 km
Speed
7.454 km/s
True Right ascension
23h 24m 16s
True Declination
0° 00' 00"
Sunlit
Object was in full shadow at epoch
Visualization orbit readout
Latitude
Unknown
Longitude
Unknown
Altitude
Unknown
Speed
Unknown
Apparent Right ascension
Unknown
Apparent Declination
Unknown
Sunlit
N/A
Visualization observer readout
Local Sidereal Time
07:41:54
Azimuth
Unknown
Elevation
Unknown
Doppler factor
Unknown
Orbital elements
Apogee altitude
915.307 km
Perigee altitude
833.912 km
Semi-major axis
7,252.747 km
Eccentricity
0.00561
Inclination
99.0354°
RAAN
351.0695°
Arg. of periapsis
6.7086°
True anomaly
353.4085°
Mean anomaly
353.482°
Eccentric anomaly
353.4453°
Mean motion
3.5139 °/min
Orbital period
102.45 mins
BSTAR
0.00079992
Loading maneuver chart data...
Computing Atmospheric mass density...

Documentation

Showing up to 5 results
|